Stations météo

Publicité
Le Touquet, France (7003): Température de l'air & dewpoint: 17.01.2017 05:00:00 - 23.01.2017 05:00:00 (CET)Le Touquet, France (7003): Température de l'air 5cm: 17.01.2017 05:00:00 - 23.01.2017 05:00:00 (CET)Le Touquet, France (7003): Vitesse du vent & gusts: 17.01.2017 05:00:00 - 23.01.2017 05:00:00 (CET)Le Touquet, France (7003): Direction du vent: 17.01.2017 05:00:00 - 23.01.2017 05:00:00 (CET)Le Touquet, France (7003): reduced air pressure: 17.01.2017 05:00:00 - 23.01.2017 05:00:00 (CET)Le Touquet, France (7003): visibility: 17.01.2017 05:00:00 - 23.01.2017 05:00:00 (CET)Le Touquet, France (7003): Ensoleillement: 17.01.2017 05:00:00 - 23.01.2017 05:00:00 (CET)Le Touquet, France (7003): Quantités de précipitations: 17.01.2017 05:00:00 - 23.01.2017 05:00:00 (CET)
Date & Time tt [°C] td [°C] tt 5cm [°C] ff [km/h] ff [knt] fx [km/h] fx [knt] dd ppp [hPa] vv [km] sd [min] rr [mm]
23.01.2017 05:00:00 -0,5 -0,8 -2,6 8 5 12 7 ESE 1028,3 0,1 0 0,0
23.01.2017 04:00:00 -2,9 -3,4 -7,9 4 2 8 5 S 1028,4 0,9 0 0,0
23.01.2017 03:00:00 -4,2 -5,0 -8,0 2 1 4 2 SSE 1028,4 1,2 0 0,0
23.01.2017 02:00:00 -3,6 -4,4 - 2 1 5 3 S 1028,4 1,4 - 0,0
23.01.2017 01:00:00 -3,7 -4,5 -7,2 5 3 8 4 SSE 1028,7 1,7 0 0,0
23.01.2017 00:00:00 -3,7 -4,5 -7,2 3 1 5 3 SSE 1028,9 1,5 0 0,0
22.01.2017 23:00:00 -3,1 -3,9 -6,5 0 0 6 3 N 1028,7 1,6 0 0,0
22.01.2017 22:00:00 -2,9 -4,2 -6,0 4 2 6 3 S 1028,5 2,0 0 0,0
22.01.2017 21:00:00 -2,2 -3,9 -5,8 4 2 5 3 SE 1028,3 2,7 0 0,0
22.01.2017 20:00:00 0,2 -2,5 -4,3 4 2 8 4 SE 1028,1 4,2 0 0,0
22.01.2017 19:00:00 0,7 -3,0 -3,2 5 3 12 7 SSE 1027,7 6 0 0,0
22.01.2017 18:00:00 1,5 -3,0 -2,6 0 0 10 5 N 1026,9 11 0 0,0
22.01.2017 17:00:00 3,2 -0,1 1,1 6 3 11 6 N 1026,7 4,9 50 0,0
22.01.2017 16:00:00 4,8 0,2 4,2 10 6 15 8 NW 1026,6 6 60 0,0
22.01.2017 15:00:00 4,8 -0,8 7,7 9 5 11 6 NNW 1026,8 6 56 0,0
22.01.2017 14:00:00 4,9 -1,8 8,6 4 2 7 4 SSE 1027,1 6 60 0,0
22.01.2017 13:00:00 2,6 -1,0 2,2 5 3 16 8 SE 1027,8 5 60 0,0
22.01.2017 12:00:00 0,8 -2,3 1,5 9 5 14 7 ESE 1028,3 4,2 36 0,0
22.01.2017 11:00:00 -1,9 -3,9 -2,3 6 3 11 6 ESE 1028,2 2,9 43 0,0
22.01.2017 10:00:00 -3,4 -5,0 -6,2 8 4 14 8 SE 1027,8 3,3 3 0,0
22.01.2017 09:00:00 -5,6 -6,7 -6,8 12 6 19 10 SE 1027,3 2,7 0 0,0
22.01.2017 08:00:00 -5,7 -6,8 -7,0 9 5 12 7 SE 1026,9 2,8 0 0,0
22.01.2017 07:00:00 -5,4 -6,5 -8,1 8 5 13 7 SSE 1026,7 2,9 0 0,0
22.01.2017 06:00:00 -5,2 -6,3 -7,9 3 2 10 5 S 1027,0 2,6 0 0,0
22.01.2017 05:00:00 -4,9 -6,0 -6,3 8 4 12 6 SSE 1027,5 3,0 0 0,0
22.01.2017 04:00:00 -5,0 -6,1 -7,1 9 5 11 6 SE 1027,8 2,7 0 0,0
22.01.2017 03:00:00 -4,8 -6,0 -7,6 5 3 8 4 SSE 1027,5 3,2 0 0,0
22.01.2017 02:00:00 -4,0 -5,3 -6,1 7 4 14 8 SE 1027,7 3,4 0 0,0
22.01.2017 01:00:00 -3,8 -5,1 -5,8 8 5 12 6 ESE 1027,4 3,6 0 0,0
22.01.2017 00:00:00 -3,4 -4,8 -4,8 10 6 13 7 SE 1027,9 3,4 0 0,0
21.01.2017 23:00:00 -3,1 -4,5 -4,6 12 6 15 8 ESE 1027,4 3,5 0 0,0
21.01.2017 22:00:00 -2,7 -4,3 -4,4 11 6 15 8 SE 1027,4 3,8 0 0,0
21.01.2017 21:00:00 -2,6 -4,3 -5,5 11 6 14 7 ESE 1027,2 4,3 0 0,0
21.01.2017 20:00:00 -1,9 -4,1 -5,0 9 5 13 7 SE 1027,3 4,9 0 0,0
21.01.2017 19:00:00 -1,4 -4,1 -5,1 6 4 12 6 SE 1027,0 6 0 0,0
21.01.2017 18:00:00 -0,7 -4,2 -3,7 6 4 14 7 SE 1027,0 7 0 0,0
21.01.2017 17:00:00 0,4 -3,9 -1,7 7 4 15 8 SE 1026,8 8 42 0,0
21.01.2017 16:00:00 1,7 -4,0 1,7 10 6 17 9 SE 1026,9 9 60 0,0
21.01.2017 15:00:00 2,1 -4,4 5,1 11 6 18 10 SE 1026,8 7 60 0,0
21.01.2017 14:00:00 1,5 -4,8 5,3 13 7 19 10 ESE 1027,5 10 60 0,0
21.01.2017 13:00:00 0,7 -5,5 1,3 13 7 20 11 ESE 1028,2 10 60 0,0
21.01.2017 12:00:00 -0,2 -6,2 1,7 15 8 21 12 ESE 1028,7 19 60 0,0
21.01.2017 11:00:00 -1,2 -6,4 -0,5 12 6 18 10 SE 1029,0 18 60 0,0
21.01.2017 10:00:00 -2,8 -6,6 -6,1 6 3 9 5 SE 1029,0 17 29 0,0
21.01.2017 09:00:00 -4,1 -7,9 -6,7 6 3 11 6 SSE 1028,8 20 0 0,0
21.01.2017 08:00:00 -3,9 -7,7 -7,8 6 4 15 8 SE 1028,9 24 0 0,0
21.01.2017 07:00:00 -3,6 -7,7 -8,2 6 4 16 8 ESE 1028,9 23 0 0,0
21.01.2017 06:00:00 -4,6 -8,0 -8,1 6 3 10 5 E 1029,1 24 0 0,0
21.01.2017 05:00:00 -2,4 -7,5 -6,7 6 3 8 4 ESE 1029,4 25 0 0,0
21.01.2017 04:00:00 -1,9 -7,2 -6,4 5 3 9 5 ESE 1029,9 26 0 0,0
21.01.2017 03:00:00 -2,3 -6,8 -7,6 8 5 10 5 ESE 1030,1 24 0 0,0
21.01.2017 02:00:00 -2,9 -6,7 -6,7 5 3 10 5 E 1030,5 18 0 0,0
21.01.2017 01:00:00 -2,1 -6,1 -5,0 7 4 18 10 SE 1030,5 19 0 0,0
21.01.2017 00:00:00 -2,2 -6,6 -5,6 9 5 14 8 E 1031,0 20 0 0,0
20.01.2017 23:00:00 -1,3 -5,9 -5,7 8 4 10 5 ESE 1030,8 18 0 0,0
20.01.2017 22:00:00 -1,0 -5,6 -4,2 9 5 18 10 SE 1030,9 19 0 0,0
20.01.2017 21:00:00 0,0 -5,6 -2,2 11 6 20 11 E 1030,9 20 0 0,0
20.01.2017 20:00:00 -0,2 -5,0 -5,7 12 7 17 9 ENE 1031,2 15 0 0,0
20.01.2017 19:00:00 -1,8 -4,1 -5,7 6 3 8 4 E 1031,3 8 0 0,0
20.01.2017 18:00:00 0,7 -3,6 -3,3 6 3 16 8 ENE 1031,4 9 0 0,0
20.01.2017 17:00:00 1,8 -4,1 0,0 9 5 21 11 ESE 1031,4 15 49 0,0
20.01.2017 16:00:00 3,6 -4,4 3,2 13 7 21 11 E 1031,2 16 60 0,0
20.01.2017 15:00:00 3,9 -4,6 7,6 14 8 21 11 E 1031,5 19 60 0,0
20.01.2017 14:00:00 4,4 -3,6 8,0 9 5 20 11 ESE 1031,8 18 58 0,0
20.01.2017 13:00:00 3,7 -3,8 3,7 13 7 23 12 E 1032,6 12 60 0,0
20.01.2017 12:00:00 2,2 -4,3 5,7 8 5 19 11 E 1033,2 15 60 0,0
20.01.2017 11:00:00 1,1 -4,8 1,9 9 5 16 9 E 1033,6 17 60 0,0
20.01.2017 10:00:00 -0,4 -5,2 -3,1 7 4 11 6 SE 1033,5 17 38 0,0
20.01.2017 09:00:00 -2,0 -6,2 -4,2 8 4 23 12 SE 1033,4 15 0 0,0
20.01.2017 08:00:00 -1,9 -6,3 -4,6 8 4 18 10 E 1033,1 16 0 0,0
20.01.2017 07:00:00 -1,6 -6,0 -3,6 11 6 18 10 E 1033,2 17 0 0,0
20.01.2017 06:00:00 -1,5 -6,1 -5,1 13 7 21 11 E 1033,5 18 0 0,0
20.01.2017 05:00:00 -2,0 -6,2 -5,1 8 5 16 9 ESE 1033,8 20 0 0,0
20.01.2017 04:00:00 -1,6 -6,2 -3,1 12 6 20 11 E 1034,1 20 0 0,0
20.01.2017 03:00:00 -1,5 -5,9 -3,2 12 6 18 10 E 1034,5 20 0 0,0
20.01.2017 02:00:00 -1,2 -5,4 -2,6 14 8 22 12 E 1034,6 18 0 0,0
20.01.2017 01:00:00 -1,2 -5,4 -3,3 14 8 19 11 ENE 1034,7 19 0 0,0
20.01.2017 00:00:00 -0,8 -5,0 -3,9 13 7 20 11 E 1034,9 18 0 0,0
19.01.2017 23:00:00 -0,5 -5,1 -2,7 7 4 21 12 ENE 1035,2 15 0 0,0
19.01.2017 22:00:00 0,4 -4,4 -0,8 12 7 29 15 ESE 1035,2 17 0 0,0
19.01.2017 21:00:00 0,5 -3,8 -0,7 16 9 31 17 E 1035,1 15 0 0,0
19.01.2017 20:00:00 0,8 -3,9 -1,5 17 9 29 15 E 1034,9 15 0 0,0
19.01.2017 19:00:00 0,6 -3,9 -1,3 10 5 21 11 ENE 1035,0 14 0 0,0
19.01.2017 18:00:00 1,4 -4,3 -0,3 13 7 24 13 ENE 1034,7 17 0 0,0
19.01.2017 17:00:00 2,0 -4,1 0,8 14 8 26 14 ENE 1035,0 15 47 0,0
19.01.2017 16:00:00 3,5 -4,2 2,9 13 7 22 12 ENE 1035,0 16 60 0,0
19.01.2017 15:00:00 4,0 -5,2 7,2 15 8 28 15 E 1035,1 18 60 0,0
19.01.2017 14:00:00 3,8 -5,2 7,4 12 6 32 17 E 1035,5 18 60 0,0
19.01.2017 13:00:00 3,5 -5,4 3,6 18 10 35 19 E 1035,8 16 60 0,0
19.01.2017 12:00:00 2,5 -5,6 4,8 19 10 36 20 E 1036,3 15 60 0,0
19.01.2017 11:00:00 1,6 -5,8 2,7 16 9 28 15 ENE 1036,3 15 60 0,0
19.01.2017 10:00:00 0,2 -6,4 -1,8 9 5 22 12 E 1036,6 14 37 0,0
19.01.2017 09:00:00 -1,0 -6,4 -3,0 11 6 24 13 E 1036,4 14 0 0,0
19.01.2017 08:00:00 -1,6 -5,6 -3,3 9 5 14 8 ENE 1036,3 9 0 0,0
19.01.2017 07:00:00 -1,5 -5,7 -3,1 9 5 27 15 ESE 1036,4 10 0 0,0
19.01.2017 06:00:00 -1,2 -6,6 -2,8 5 3 22 12 E 1036,1 11 0 0,0
19.01.2017 05:00:00 -0,5 -5,9 -3,6 14 7 24 13 ENE 1036,3 13 0 0,0
19.01.2017 04:00:00 -2,0 -5,8 -4,2 5 3 21 11 ESE 1036,8 11 0 0,0
19.01.2017 03:00:00 -2,3 -5,3 -4,1 7 4 15 8 ESE 1037,0 6 0 0,0
19.01.2017 02:00:00 -2,5 -4,8 -3,7 8 5 13 7 ESE 1037,2 4,8 0 0,0
19.01.2017 01:00:00 -2,0 -4,3 -3,1 9 5 19 11 SE 1037,4 4,4 0 0,0
19.01.2017 00:00:00 -1,8 -4,3 -3,2 9 5 17 9 SE 1037,5 4,7 0 0,0
18.01.2017 23:00:00 -1,5 -5,0 -3,1 11 6 18 10 E 1037,5 7 0 0,0
18.01.2017 22:00:00 -1,3 -5,2 -3,7 8 4 17 9 E 1037,5 7 0 0,0
18.01.2017 21:00:00 -1,3 -5,3 -4,1 8 4 13 7 ESE 1037,6 8 0 0,0
18.01.2017 20:00:00 -1,1 -5,1 - 2 1 11 6 SSE 1037,6 7 - 0,0
18.01.2017 19:00:00 -0,7 -5,5 -2,7 3 1 14 8 ESE 1037,5 9 0 0,0
18.01.2017 18:00:00 0,3 -4,9 -2,6 8 4 18 10 NNE 1037,6 10 0 0,0
18.01.2017 17:00:00 1,9 -5,3 0,3 3 1 19 10 NNE 1037,5 14 46 0,0
18.01.2017 16:00:00 2,4 -4,1 2,0 9 5 21 12 ENE 1038,0 14 60 0,0
18.01.2017 15:00:00 2,4 -4,4 5,9 9 5 21 12 NE 1037,9 15 60 0,0
18.01.2017 14:00:00 2,4 -4,6 6,0 11 6 28 15 E 1038,0 19 60 0,0
18.01.2017 13:00:00 1,6 -4,9 1,7 16 9 26 14 E 1038,2 12 60 0,0
18.01.2017 12:00:00 0,9 -4,5 3,7 16 9 27 14 E 1038,5 13 60 0,0
18.01.2017 11:00:00 0,1 -4,2 -0,2 8 5 13 7 E 1039,1 14 60 0,0
18.01.2017 10:00:00 -1,6 -4,4 -6,8 5 3 9 5 ESE 1038,8 7 39 0,0
18.01.2017 09:00:00 -5,0 -5,8 -8,3 4 2 8 4 SE 1038,8 2,5 0 0,0
18.01.2017 08:00:00 -5,8 -6,6 -8,5 0 0 4 2 N 1038,6 2,2 0 0,0
18.01.2017 07:00:00 -5,8 -6,6 -7,9 0 0 4 2 N 1038,3 2,3 0 0,0
18.01.2017 06:00:00 -5,2 -6,0 -8,0 0 0 3 2 N 1038,3 2,4 0 0,0
18.01.2017 05:00:00 -5,4 -6,5 -7,5 0 0 4 2 N 1038,6 2,4 0 0,0
18.01.2017 04:00:00 -4,6 -6,0 -6,6 3 1 10 5 ENE 1038,7 2,4 0 0,0
18.01.2017 03:00:00 -3,4 -5,0 -6,5 6 3 11 6 ENE 1038,8 4,4 0 0,0
18.01.2017 02:00:00 -3,4 -5,1 -5,8 5 3 9 5 SSE 1038,8 4,2 0 0,0
18.01.2017 01:00:00 -2,9 -4,6 -5,3 5 3 12 6 ESE 1038,7 4,1 0 0,0
18.01.2017 00:00:00 -2,6 -4,6 -5,6 8 4 12 7 E 1038,9 4,7 0 0,0
17.01.2017 23:00:00 -2,9 -5,1 -5,2 6 4 12 7 E 1038,7 4,8 0 0,0
17.01.2017 22:00:00 -2,6 -4,5 -4,7 5 3 13 7 ESE 1038,7 4,1 0 0,0
17.01.2017 21:00:00 -2,2 -3,9 -4,3 8 4 16 8 ESE 1038,4 4,4 0 0,0
17.01.2017 20:00:00 -1,8 -3,8 -4,1 4 2 13 7 SE 1038,3 4,3 0 0,0
17.01.2017 19:00:00 -1,8 -4,1 -3,7 9 5 13 7 E 1037,9 4,8 0 0,0
17.01.2017 18:00:00 -1,2 -3,6 -2,6 8 4 16 8 E 1037,8 5 0 0,0
17.01.2017 17:00:00 0,0 -3,0 -1,1 5 3 14 8 E 1037,3 6 43 0,0
17.01.2017 16:00:00 0,5 -2,2 0,6 9 5 16 9 E 1037,3 4,5 60 0,0
17.01.2017 15:00:00 0,8 -1,8 3,9 12 7 17 9 ESE 1037,0 4,9 60 0,0
17.01.2017 14:00:00 0,2 -2,2 3,8 13 7 18 10 ESE 1037,2 5 60 0,0
17.01.2017 13:00:00 -0,4 -2,3 0,1 7 4 18 10 SE 1037,5 3,8 41 0,0
17.01.2017 12:00:00 -1,6 -2,7 -1,3 11 6 18 10 ESE 1037,7 3,1 5 0,0
17.01.2017 11:00:00 -1,8 -2,8 -2,1 10 5 19 11 ESE 1037,4 2,7 0 0,0
17.01.2017 10:00:00 -2,1 -2,9 -2,0 14 7 19 11 ESE 1036,7 2,3 0 0,0
17.01.2017 09:00:00 -1,5 -2,5 -2,8 13 7 18 10 ESE 1036,2 2,5 0 0,0
17.01.2017 08:00:00 -1,6 -2,6 -2,8 12 7 16 9 ESE 1035,7 2,6 0 0,0
17.01.2017 07:00:00 -1,0 -2,0 -2,3 8 4 14 8 ESE 1035,0 3,0 0 0,0
17.01.2017 06:00:00 -0,9 -1,7 -2,1 8 4 17 9 E 1034,4 5 0 0,0
17.01.2017 05:00:00 -0,5 -1,1 -0,7 13 7 19 11 ESE 1034,1 2,9 0 0,0

tt = Température de l'air
td = dewpoint
tt 5cm = Température de l'air 5cm
ff = Vitesse du vent
fx = gusts
dd = Direction du vent
ppp = reduced air pressure
vv = visibility
sd = Ensoleillement
rr = Quantités de précipitations

stations d'obs. à proximité